Location: Saint John
(45.2733°N, 66.0633°W)
Time: 18:17:52
(UTC-04:00)

BlueWalker 3 - Visible Passes

Search period start: 28 November 2022 00:00
Search period end: 08 December 2022 00:00
Orbit: 500 x 519 km, 53.2° (Epoch: 28 November)

Date Brightness Start Highest point End Pass type
(mag) Time Alt. Az. Time Alt. Az. Time Alt. Az.
28 Nov 2.8 17:56:01 10° W 17:59:45 41° NNW 18:02:15 18° NE visible
28 Nov 4.5 19:35:52 10° WNW 19:37:05 16° NW 19:37:05 16° NW visible
29 Nov 2.9 17:37:42 10° W 17:41:24 39° NNW 17:44:37 13° NE visible
29 Nov 4.1 19:17:32 10° WNW 19:19:26 20° NNW 19:19:26 20° NNW visible
30 Nov 2.9 17:19:23 10° W 17:23:04 38° NNW 17:26:45 10° NE visible
30 Nov 3.7 18:59:12 10° WNW 19:01:47 23° NNW 19:01:47 23° NNW visible
01 Dec 3.4 18:40:52 10° NW 18:44:08 25° N 18:44:08 25° N visible
02 Dec 3.3 18:22:31 10° NW 18:25:48 25° N 18:26:28 24° NNE visible
03 Dec 3.4 18:04:10 10° NW 18:07:27 25° N 18:08:50 20° NE visible
03 Dec 4.8 19:43:02 10° NW 19:43:40 14° NW 19:43:40 14° NW visible
04 Dec 3.3 17:45:48 10° NW 17:49:06 25° N 17:51:14 16° NE visible
04 Dec 4.2 19:24:38 10° NW 19:26:04 20° NW 19:26:04 20° NW visible
05 Dec 3.3 17:27:25 10° NW 17:30:44 25° N 17:33:41 12° ENE visible
05 Dec 3.4 19:06:15 10° NW 19:08:31 30° NNW 19:08:31 30° NNW visible
06 Dec 2.5 18:47:50 10° NW 18:51:03 46° N 18:51:03 46° N visible
07 Dec 2.0 18:29:25 10° NW 18:33:15 54° NNE 18:33:40 51° NE visible
07 Dec 5.3 20:08:21 10° WNW 20:08:31 11° WNW 20:08:31 11° WNW visible
